When you browse on this site, cookies collect data to enhance your experience and personalize the content and advertising you see.
Visit our Privacy Policy to learn more. By continuing to use the site, you agree to this use of cookies and data.
  • In Hungary
  • List of Countries
  • For 7 days
  • Water Temperature
  • Weather Map
  • News
  • Weather Widgets
  • user-avatar
    Login

    Hourly Weather Sessa Aurunca

    Today, 18 November, Monday

    Time Temperature Precipitation Wind Pressure Humidity
    00:00 +10°C° 0 mm 3 mps 740 mmHg 87%
    01:00 +10°C° 0 mm 3 mps 741 mmHg 86%
    02:00 +9°C° 0 mm 2 mps 741 mmHg 86%
    03:00 +9°C° 0 mm 2 mps 741 mmHg 86%
    04:00 +10°C° 0 mm 1 mps 741 mmHg 86%
    05:00 +10°C° 0 mm 1 mps 742 mmHg 86%
    06:00 +10°C° 0 mm 1 mps 742 mmHg 86%
    07:00 +10°C° 0 mm 1 mps 743 mmHg 86%
    08:00 +11°C° 0 mm 1 mps 743 mmHg 81%
    09:00 +12°C° 0 mm 1 mps 743 mmHg 77%
    10:00 +14°C° 0 mm 1 mps 744 mmHg 72%
    11:00 +14°C° 0.1 mm 2 mps 744 mmHg 70%
    12:00 +14°C° 0.1 mm 3 mps 744 mmHg 67%
    13:00 +16°C° 0.1 mm 3 mps 743 mmHg 64%
    14:00 +14°C° 0.1 mm 3 mps 743 mmHg 68%
    15:00 +14°C° 0.1 mm 3 mps 743 mmHg 72%
    16:00 +13°C° 0.1 mm 3 mps 743 mmHg 76%
    17:00 +13°C° 0.2 mm 3 mps 743 mmHg 78%
    18:00 +12°C° 0.2 mm 3 mps 743 mmHg 79%
    19:00 +12°C° 0.2 mm 3 mps 743 mmHg 80%
    20:00 +12°C° 0.2 mm 3 mps 743 mmHg 80%
    21:00 +12°C° 0.2 mm 3 mps 744 mmHg 80%
    22:00 +11°C° 0.2 mm 3 mps 744 mmHg 80%
    23:00 +11°C° 0.1 mm 3 mps 744 mmHg 81%

    Tomorrow, 19 November, Tuesday

    Time Temperature Precipitation Wind Pressure Humidity
    00:00 +11°C° 0.1 mm 3 mps 743 mmHg 81%
    01:00 +11°C° 0.1 mm 3 mps 743 mmHg 81%
    02:00 +11°C° 0.3 mm 3 mps 743 mmHg 82%
    03:00 +11°C° 0.3 mm 3 mps 743 mmHg 82%
    04:00 +11°C° 0.3 mm 3 mps 743 mmHg 83%
    05:00 +11°C° 0.5 mm 3 mps 742 mmHg 84%
    06:00 +11°C° 0.5 mm 3 mps 742 mmHg 85%
    07:00 +11°C° 0.5 mm 3 mps 742 mmHg 86%
    08:00 +12°C° 1 mm 3 mps 743 mmHg 86%
    09:00 +12°C° 1 mm 3 mps 743 mmHg 86%
    10:00 +12°C° 1 mm 3 mps 743 mmHg 86%
    11:00 +12°C° 1.4 mm 3 mps 743 mmHg 86%
    12:00 +14°C° 1.4 mm 2 mps 742 mmHg 85%
    13:00 +14°C° 1.4 mm 2 mps 742 mmHg 84%
    14:00 +14°C° 0.9 mm 2 mps 742 mmHg 84%
    15:00 +13°C° 0.9 mm 3 mps 742 mmHg 84%
    16:00 +12°C° 0.9 mm 3 mps 742 mmHg 84%
    17:00 +13°C° 0.5 mm 2 mps 742 mmHg 85%
    18:00 +13°C° 0.5 mm 2 mps 742 mmHg 87%
    19:00 +12°C° 0.5 mm 2 mps 742 mmHg 88%
    20:00 +12°C° 0.2 mm 2 mps 743 mmHg 89%
    21:00 +12°C° 0.2 mm 1 mps 743 mmHg 89%
    22:00 +12°C° 0.2 mm 1 mps 743 mmHg 90%
    23:00 +12°C° 0.1 mm 1 mps 743 mmHg 88%

    Day after tomorrow, 20 November, Wednesday

    Time Temperature Precipitation Wind Pressure Humidity
    00:00 +10°C° 0.1 mm 0 mps 743 mmHg 87%
    01:00 +10°C° 0.1 mm 0 mps 743 mmHg 85%
    02:00 +10°C° 0.1 mm 0 mps 743 mmHg 86%
    03:00 +11°C° 0.1 mm 1 mps 743 mmHg 86%
    04:00 +11°C° 0.1 mm 1 mps 743 mmHg 86%
    05:00 +11°C° 0.1 mm 1 mps 743 mmHg 86%
    06:00 +9°C° 0.1 mm 2 mps 743 mmHg 87%
    07:00 +9°C° 0.1 mm 2 mps 743 mmHg 87%
    08:00 +10°C° 0.1 mm 2 mps 744 mmHg 84%
    09:00 +12°C° 0.1 mm 1 mps 744 mmHg 80%
    10:00 +14°C° 0.1 mm 1 mps 744 mmHg 77%
    11:00 +14°C° 0 mm 2 mps 744 mmHg 75%
    12:00 +15°C° 0 mm 2 mps 744 mmHg 73%
    13:00 +14°C° 0 mm 3 mps 744 mmHg 71%
    14:00 +15°C° 0.1 mm 2 mps 744 mmHg 74%
    15:00 +14°C° 0.1 mm 2 mps 744 mmHg 76%
    16:00 +14°C° 0.1 mm 2 mps 744 mmHg 79%
    17:00 +13°C° 0.1 mm 2 mps 744 mmHg 81%
    18:00 +13°C° 0.1 mm 2 mps 745 mmHg 82%
    19:00 +12°C° 0.1 mm 2 mps 745 mmHg 84%
    20:00 +12°C° 0.1 mm 2 mps 745 mmHg 83%
    21:00 +12°C° 0.1 mm 2 mps 745 mmHg 83%
    22:00 +12°C° 0.1 mm 1 mps 745 mmHg 83%
    23:00 +12°C° 0 mm 1 mps 745 mmHg 83%

    21 November, Thursday

    Time Temperature Precipitation Wind Pressure Humidity
    00:00 +11°C° 0 mm 1 mps 745 mmHg 83%
    01:00 +11°C° 0 mm 1 mps 745 mmHg 83%
    02:00 +11°C° 0 mm 1 mps 745 mmHg 83%
    03:00 +11°C° 0 mm 1 mps 744 mmHg 83%
    04:00 +11°C° 0 mm 1 mps 744 mmHg 83%
    05:00 +11°C° 0 mm 1 mps 744 mmHg 83%
    06:00 +11°C° 0 mm 1 mps 744 mmHg 83%
    07:00 +11°C° 0 mm 1 mps 744 mmHg 83%
    08:00 +12°C° 0 mm 1 mps 744 mmHg 80%
    09:00 +13°C° 0 mm 1 mps 745 mmHg 77%
    10:00 +14°C° 0 mm 1 mps 745 mmHg 74%
    11:00 +14°C° 0.1 mm 1 mps 745 mmHg 72%
    12:00 +15°C° 0.1 mm 1 mps 744 mmHg 70%
    13:00 +15°C° 0.1 mm 2 mps 744 mmHg 68%
    14:00 +14°C° 0.2 mm 1 mps 744 mmHg 72%
    15:00 +14°C° 0.2 mm 1 mps 744 mmHg 76%
    16:00 +13°C° 0.2 mm 1 mps 744 mmHg 80%
    17:00 +13°C° 0.1 mm 1 mps 744 mmHg 82%
    18:00 +12°C° 0.1 mm 1 mps 744 mmHg 83%
    19:00 +11°C° 0.1 mm 1 mps 744 mmHg 85%
    20:00 +11°C° 0 mm 1 mps 744 mmHg 85%
    21:00 +11°C° 0 mm 1 mps 745 mmHg 85%
    22:00 +11°C° 0 mm 1 mps 745 mmHg 85%
    23:00 +11°C° 0 mm 1 mps 745 mmHg 85%

    22 November, Friday

    Time Temperature Precipitation Wind Pressure Humidity
    00:00 +11°C° 0 mm 1 mps 745 mmHg 85%
    01:00 +11°C° 0 mm 1 mps 745 mmHg 85%
    02:00 +11°C° 0 mm 1 mps 745 mmHg 85%
    03:00 +10°C° 0 mm 1 mps 745 mmHg 85%
    04:00 +10°C° 0 mm 1 mps 744 mmHg 85%
    05:00 +10°C° 0.1 mm 1 mps 744 mmHg 85%
    06:00 +11°C° 0.1 mm 1 mps 745 mmHg 85%
    07:00 +11°C° 0.1 mm 1 mps 745 mmHg 85%
    08:00 +11°C° 0.1 mm 1 mps 745 mmHg 83%
    09:00 +12°C° 0.1 mm 1 mps 745 mmHg 82%
    10:00 +13°C° 0.1 mm 1 mps 745 mmHg 80%
    11:00 +14°C° 0 mm 1 mps 745 mmHg 79%
    12:00 +14°C° 0 mm 1 mps 745 mmHg 79%
    13:00 +15°C° 0 mm 1 mps 744 mmHg 78%
    14:00 +14°C° 0.1 mm 1 mps 744 mmHg 79%
    15:00 +14°C° 0.1 mm 1 mps 744 mmHg 81%
    16:00 +14°C° 0.1 mm 1 mps 744 mmHg 83%
    17:00 +13°C° 0 mm 1 mps 744 mmHg 84%
    18:00 +13°C° 0 mm 1 mps 744 mmHg 86%
    19:00 +12°C° 0 mm 1 mps 744 mmHg 87%
    20:00 +12°C° 0 mm 1 mps 744 mmHg 87%
    21:00 +12°C° 0 mm 1 mps 744 mmHg 86%
    22:00 +12°C° 0 mm 1 mps 744 mmHg 86%
    23:00 +12°C° 0 mm 1 mps 744 mmHg 85%

    23 November, Saturday

    Time Temperature Precipitation Wind Pressure Humidity
    00:00 +12°C° 0 mm 1 mps 744 mmHg 84%
    01:00 +11°C° 0 mm 1 mps 744 mmHg 83%
    02:00 +10°C° 0 mm 2 mps 744 mmHg 81%
    03:00 +10°C° 0 mm 2 mps 743 mmHg 80%
    04:00 +10°C° 0 mm 2 mps 743 mmHg 79%
    05:00 +10°C° 0 mm 2 mps 743 mmHg 78%
    06:00 +10°C° 0 mm 2 mps 743 mmHg 77%
    07:00 +10°C° 0 mm 2 mps 743 mmHg 76%
    08:00 +12°C° 0 mm 2 mps 743 mmHg 73%
    09:00 +14°C° 0 mm 2 mps 743 mmHg 70%
    10:00 +15°C° 0 mm 2 mps 743 mmHg 67%
    11:00 +15°C° 0 mm 2 mps 743 mmHg 65%
    12:00 +16°C° 0 mm 2 mps 742 mmHg 64%
    13:00 +16°C° 0 mm 2 mps 742 mmHg 62%
    14:00 +16°C° 0 mm 2 mps 742 mmHg 65%
    15:00 +15°C° 0 mm 2 mps 742 mmHg 68%
    16:00 +15°C° 0 mm 2 mps 741 mmHg 70%
    17:00 +14°C° 0 mm 2 mps 742 mmHg 70%
    18:00 +14°C° 0 mm 2 mps 742 mmHg 70%
    19:00 +13°C° 0 mm 2 mps 742 mmHg 70%
    20:00 +13°C° 0 mm 2 mps 742 mmHg 70%
    21:00 +13°C° 0 mm 2 mps 742 mmHg 69%
    22:00 +13°C° 0 mm 2 mps 742 mmHg 69%
    23:00 +12°C° 0 mm 2 mps 742 mmHg 68%
    Show more